Delta Virtual Airport Information Service

Minneapolis Saint Paul International Airport

ICAO: KMSP Country: United States
Latitude: 44.882 Longitude: -93.2217
Latest Arrival : DAL1135 (C) (KLAS-KMSP) Latest Departure : DAL1035 (C) (KMSP-KBOS)


WX CaptureLIVE
Data provided by noaa.gov | Fetched at 08:48:28

METAR : KMSP 061353Z 14003KT 10SM FEW250 M01/M07 A3036 RMK AO2 SLP291 T10111067

TAF : KMSP 061444Z 0615/0718 13003KT P6SM FEW250 FM061800 12006KT P6SM SKC FM071000 14013KT P6SM FEW180 WS020/19050KT FM071700 18014G23KT P6SM SCT045


Runway Data for KMSP
Data provided by openaviationdata.com

Runway ID Mag Var Hdg Length Elevation Surface ILS Freq ILS Id ILS Slope
4 2 42° 10999 ft 841 ft Concrete 109.3 IAPL 3
12L 2 119° 8190 ft 841 ft Asphalt 110.7 IPJL 3
12R 2 119° 9988 ft 841 ft Asphalt 110.3 IHKZ 3
22 2 222° 10999 ft 841 ft Concrete 110.5 ISIJ 0
30L 2 299° 9988 ft 841 ft Asphalt 110.3 IMSP 3
30R 2 299° 8190 ft 841 ft Asphalt 110.7 IINN 3

Minneapolis Saint Paul International Airport, United States
Use only for reference purposes



Not for navigational purposes.